Location: Hac?musa Deresi
(39.1694°N, 32.2508°E)
Time: 11:13:50
(UTC+00:00)

Cosmos 1378 Rocket - Pass Details

Date: 22 April 2026
Orbit: 594 x 620 km, 82.5° (Epoch: 20 May)

Event Time Altitude Azimuth Distance (km) Brightness Sun altitude
Rises 17:34:32 0° 357° (N) 2,886 7.4 -11.5°
Reaches altitude 10° 17:36:49 10° 3° (N) 1,973 6.5 -11.9°
Maximum altitude 17:41:05 52° 80° (E) 761 3.7 -12.6°
Enters shadow 17:44:33 15° 154° (SSE) 1,663 5.3 -13.2°
